#timestamp,LO_Frequency,Hit 
1502226015.8,286047000.4,N
1502226035.6,286047001.1,N
1502226055.4,286046998.4,N
1502226075.3,286047004.3,N
1502226095.1,286047004.0,N
1502226096.0,286047004.0,N
1502226115.8,286047002.5,N
1502226135.7,286047001.9,N
1502226155.5,286047004.0,N
1502226175.3,286046999.9,N
1502226195.1,286047003.9,N
1502226215.9,286047001.4,N
1502226235.7,286047001.2,N
1502226255.5,286046998.8,N
1502226275.4,286046999.8,N
1502226295.2,286047002.4,N
1502226315.0,286047003.3,N
1502226315.9,286047003.3,N
1502226335.8,286047002.8,N
1502226355.6,286047004.0,N
1502226375.4,286047003.4,N
1502226395.3,286047001.3,N
1502226415.1,286047000.8,N
1502226416.0,286047000.8,N
1502226435.8,286046997.1,N
1502226455.7,286046995.0,N
1502226475.5,286046999.0,N
1502226495.3,286046998.2,N
1502226515.2,286046998.7,N
1502226535.9,286046999.4,N
1502226555.7,286047000.6,N
1502226575.6,286047000.9,N
1502226595.4,286046998.6,N
1502226615.2,286046998.2,N
1502226635.0,286046998.5,N
1502226636.0,286046998.5,N
1502226655.8,286046999.4,N
1502226675.6,286046999.0,N
1502226695.4,286046999.6,N
1502226715.3,286046996.7,N
1502226735.1,286047001.0,N
1502226755.8,286047000.3,N
1502226775.7,286047002.2,N
1502226795.5,286047003.0,N
1502226815.3,286047003.5,N
1502226835.2,286047001.7,N
1502226855.9,286047001.6,N
1502226875.7,286047002.8,N
1502226895.6,286047001.6,N
1502226915.4,286047002.9,N
1502226935.2,286047005.3,N
1502226955.1,286046999.7,N
1502226956.0,286046999.7,N
1502226975.8,286047002.5,N
1502226995.6,286047002.0,N
1502227015.5,286047002.3,N
1502227035.3,286047001.1,N
1502227055.1,286047001.2,N
1502227075.8,286047000.3,N
1502227095.7,286047001.0,N
1502227115.5,286046998.3,N
1502227135.3,286046999.0,N
1502227155.2,286046996.8,N
1502227175.9,286046998.8,N
1502227195.7,286046998.4,N
1502227215.6,286046998.6,N
1502227235.4,286047000.1,N
1502227255.2,286046998.7,N
1502227275.1,286046999.0,N
1502227276.0,286046999.0,N
1502227295.8,286046996.7,N
1502227315.6,286046998.5,N
1502227335.5,286046999.3,N
1502227355.3,286046999.0,N
1502227375.1,286046998.6,N
1502227395.9,286046996.8,N
1502227415.7,286046998.1,N
1502227435.5,286047001.2,N
1502227455.3,286047000.8,N
1502227475.2,286047000.6,N
1502227495.0,286046998.9,N
1502227495.9,286046998.9,N
1502227515.7,286046999.0,N
1502227535.6,286046999.6,N
1502227555.4,286046998.8,N
1502227575.2,286046998.7,N
1502227595.1,286046998.4,N
1502227596.0,286046998.4,N
1502227615.8,286046999.4,N
1502227635.6,286046996.9,N
1502227655.5,286046997.6,N
1502227675.3,286046997.9,N
1502227695.1,286046998.8,N
1502227715.9,286046996.9,P
1502227735.7,286046996.6,P
1502227755.5,286046997.3,N
1502227775.4,286046997.9,N
1502227795.2,286046998.2,N
1502227815.0,286046999.3,N
1502227815.9,286046999.3,N
1502227835.8,286046997.2,N
1502227855.6,286046997.6,N
1502227875.4,286046994.7,P
1502227895.3,286046996.9,N
1502227915.1,286046998.7,N
1502227935.8,286047000.9,N
1502227955.7,286047004.3,N
1502227975.5,286047003.5,N
1502227995.3,286047005.7,N
1502228015.2,286047004.6,N
1502228035.9,286047003.7,N
1502228055.7,286047004.9,N
1502228075.6,286047005.0,N
1502228095.4,286047005.5,N
1502228115.2,286047001.8,N
1502228135.0,286047001.3,N
1502228135.9,286047001.3,N
1502228155.8,286047003.2,N
1502228175.6,286047007.4,N
1502228195.4,286047003.3,N
1502228215.3,286047003.8,N
1502228235.1,286047005.2,N
1502228255.8,286047006.6,N
1502228275.7,286047007.3,N
1502228295.5,286047009.2,N
1502228315.3,286047008.8,N
1502228335.2,286047009.9,N
1502228355.9,286047010.0,N
1502228375.7,286047010.6,N
1502228395.5,286047009.7,N
1502228415.4,286047011.5,N
1502228435.2,286047010.6,N
1502228455.0,286047009.0,N
1502228455.9,286047009.0,N
1502228475.8,286047008.5,N
1502228495.6,286047009.6,P
1502228515.5,286047003.3,N
1502228535.3,286047004.3,N
1502228555.1,286047003.8,N
1502228575.8,286047004.1,N
1502228595.7,286047003.4,N
1502228615.5,286047004.4,N
1502228635.3,286047004.1,N
1502228655.2,286047003.2,N
1502228675.9,286047003.7,N
1502228695.7,286047000.2,N
1502228715.6,286047000.9,N
1502228735.4,286047001.0,N
1502228755.2,286047002.4,N
1502228775.1,286047000.0,N
1502228776.0,286047000.0,N
1502228795.8,286047002.5,N
1502228815.6,286047004.4,N
1502228835.5,286047003.8,N
1502228855.3,286047003.4,N
1502228875.1,286047003.4,N
1502228895.9,286047002.2,N
1502228915.7,286047001.5,N
1502228935.5,286047001.3,N
1502228955.3,286047002.5,N
1502228975.2,286047000.3,N
1502228995.0,286047000.4,N
1502228995.9,286047000.4,N
1502229015.7,286047001.7,N
1502229035.6,286047003.3,N
1502229055.4,286047003.9,N
1502229075.2,286047003.8,N
1502229095.1,286047002.5,N
1502229096.0,286047002.5,N
1502229115.8,286047003.1,N
1502229135.6,286047003.7,N
1502229155.5,286047002.2,N
1502229175.3,286047000.1,N
1502229195.1,286047002.1,N
1502229215.9,286047003.1,N
1502229235.7,286047001.9,N
1502229255.5,286047001.7,N
1502229275.4,286047003.3,N
1502229295.2,286047003.4,N
1502229315.0,286047005.3,P
1502229315.9,286047005.3,P
1502229335.8,286047004.5,P
1502229355.6,286047007.2,P
1502229375.4,286047000.6,N
1502229395.3,286047002.3,N
1502229415.1,286046998.5,N
1502229416.0,286046998.5,N
1502229435.8,286047000.9,N
1502229455.7,286047000.0,N
1502229475.5,286046999.2,N
1502229495.3,286046998.6,N
1502229515.2,286047001.0,N
1502229535.9,286047002.5,N
1502229555.7,286046998.3,N
1502229575.5,286046997.5,N
1502229595.4,286046996.3,N
